CAPE
1116 1540 1724 2052 2232 2464 2572 2512 2425 2209 2126 2087 1969 1939 1910 1894 1863 1847 1762 1735 1758 1710 1767 1697 1735 1671 1567 1428 1336 1162 1221 1263 1318 1533 1554 1548 1693 1729 1771 1634 1368 1260 1234 1244 1324 1501 1322 929 849 892 824 1235 1459 1551 1685 1402 1388 1255 1038 902 766 732 714 406 409 350 178 186 400 376 483 166 25 19 30 56 18 10 24 312 470 401 293 470 453
1093 1484 1703 1888 2156 2414 2499 2446 2309 2289 2205 2085 2040 1959 1904 1894 1867 1755 1837 1786 1856 1839 1826 1817 1779 1749 1652 1563 1504 1461 1383 1486 1613 1574 1664 1682 1713 1763 1826 1775 1589 1556 1593 1760 1903 1678 1433 1217 954 860 1312 1617 1657 1651 1664 1521 1319 1184 1104 1076 920 648 577 534 592 428 530 533 477 485 612 210 12 9 17 18 15 11 33 315 513 382 438 614 504
1206 1446 1664 2074 2372 2356 2270 2348 2320 2254 2156 2094 1969 1969 1866 1887 1872 1838 1809 1858 1916 1908 1907 1856 1812 1762 1721 1654 1573 1588 1600 1693 1718 1753 1794 1757 1650 1472 1561 1940 2051 1942 1973 2022 1711 1524 1421 1340 1237 1133 1069 1211 1512 1570 1447 1368 1192 1099 1098 1054 923 659 443 594 424 600 751 720 700 645 664 423 207 85 40 32 27 12 34 229 303 582 672 631 674
1190 1463 1729 1994 2269 2181 2224 2343 2354 2257 2156 2130 2050 2058 2026 1956 1851 1838 1830 1992 1928 1948 1882 1813 1776 1722 1722 1611 1588 1611 1670 1711 1743 1765 1798 1733 1677 1413 1387 1687 1995 1900 1886 1747 1559 1356 1326 1250 1163 1032 982 961 1185 1387 1468 1454 1367 1278 1132 976 875 877 870 646 447 794 634 652 793 859 977 675 341 91 53 35 21 18 66 151 266 276 719 724 637
1285 1539 1733 1886 2029 2225 2284 2249 2190 2226 2159 2126 2088 2084 2020 1984 1966 1998 2068 2012 2015 1832 1730 1739 1680 1573 1581 1612 1603 1577 1656 1630 1578 1498 1438 1424 1539 1404 1481 1482 1697 1532 1230 1259 1218 1112 1211 1149 919 793 748 897 942 1022 1251 1275 1325 1309 1291 1266 1319 993 906 800 670 943 592 671 678 568 412 537 451 204 57 53 63 52 64 32 71 338 416 396 516
1315 1410 1586 1773 1959 2143 2192 2221 2243 2163 2208 2133 2062 2066 2036 2024 2045 2106 2058 1961 1892 1799 1742 1651 1538 1513 1446 1580 1554 1550 1477 1438 1338 1301 1528 1423 1740 1514 1435 1349 1273 1267 1155 1091 1126 1098 1048 1110 1074 970 877 851 961 977 1030 1079 1136 1139 1147 1198 1214 1192 1259 1312 1098 780 1005 1140 1188 496 21 369 456 173 73 57 36 38 32 14 62 337 291 297 297
1127 1117 1347 1670 1805 1999 2107 2211 2157 2209 2123 2111 2050 2005 1907 1967 2060 2049 2018 1926 1861 1774 1697 1644 1558 1518 1546 1517 1519 1437 1360 1326 1273 1288 1430 1507 1603 1519 1214 1301 1288 1150 1098 975 1020 936 1087 1076 973 928 860 855 892 880 983 1050 1103 1111 1088 1076 1136 1088 1175 1116 1216 1135 1362 1419 924 391 309 460 472 288 215 56 62 56 86 23 89 168 213 211 182
950 979 1250 1588 1767 1972 2097 2186 2140 2089 2119 2104 1948 1914 1936 1994 2116 2082 2019 1898 1804 1704 1648 1641 1540 1525 1555 1576 1529 1458 1372 1448 1538 1590 1571 1436 1553 1556 1343 1206 1176 1117 1046 925 899 891 921 982 955 905 846 924 902 999 936 1075 1123 1124 1147 1062 985 1212 837 1257 1204 1366 1519 1283 1109 346 288 332 414 490 477 336 141 54 67 80 58 51 56 79 80
814 879 1297 1599 1796 2108 2126 2118 2081 1996 2099 2047 1988 1956 2022 2105 2125 2018 1934 1845 1731 1680 1655 1600 1524 1479 1491 1514 1499 1503 1532 1685 1787 1740 1579 1693 1607 1678 1807 1439 1447 1497 1697 1995 1826 1564 1128 932 1005 1050 1039 1085 1000 985 1042 1042 1043 1146 1090 940 1166 1143 1154 1323 1394 1579 1296 802 535 394 154 446 580 574 367 119 20 13 18 23 14 12 11 13 13
826 1034 1434 1649 1811 2087 2038 2065 2091 2008 2105 1989 1991 2023 2034 2128 2008 1962 1878 1722 1695 1683 1616 1522 1545 1596 1521 1537 1627 1618 1689 1776 1996 2062 1658 1430 1444 1401 1350 1364 1240 1020 1223 924 874 864 975 1164 1234 982 919 1135 1007 1002 1075 928 1059 1023 1223 1343 1016 1398 1441 1491 1654 1024 539 518 476 450 328 324 435 424 180 56 23 61 47 34 38 12 12 12 10
1002 1149 1497 1650 1854 1932 1987 2096 2179 2129 2062 1988 1992 2026 2030 1975 1876 1856 1754 1714 1766 1745 1700 1589 1595 1594 1553 1579 1563 1610 1606 1732 1941 1869 1863 1525 1430 1482 1299 1174 1174 1255 958 939 868 1224 1537 1403 1210 989 1093 1112 1047 966 958 1161 1210 1360 1448 1459 1362 1365 1326 1245 1371 759 458 425 494 367 474 678 508 481 259 141 120 77 27 108 55 30 15 10 64
1019 1205 1533 1732 1917 1866 2084 2132 2184 2194 2070 2024 2022 1998 1921 1896 1832 1779 1782 1796 1784 1764 1800 1758 1793 1640 1592 1497 1506 1501 1693 1837 1858 1820 1810 1664 1321 1252 1138 1057 977 900 840 953 1364 1655 1572 1333 1181 1239 1195 1159 1147 1158 1256 1306 1251 1291 1262 1264 1126 1179 1162 1477 1308 504 402 301 576 680 835 838 712 717 647 466 284 204 153 69 42 75 61 45 36
1003 1243 1581 1717 1790 1949 2057 2100 2112 2027 1905 1982 1900 1805 1834 1776 1773 1786 1789 1976 1971 1927 1928 1814 1793 1734 1506 1281 1463 1608 1817 1857 1844 1855 1875 1712 1402 1167 1092 973 939 906 1046 1124 1474 1586 1448 1365 1368 1320 1304 1262 1152 1190 1156 1141 1149 1197 1198 1029 1119 1407 1591 1866 1530 767 423 492 698 901 1101 1154 1097 820 456 201 172 145 90 44 30 22 20 18 8
1175 1446 1574 1621 1867 2128 2016 1987 2005 2040 2014 2010 1971 1867 1877 1892 1827 1824 1952 2065 2118 2065 1886 1693 1720 1626 1568 1514 1560 1727 1775 1727 1703 1697 1752 1725 1495 1152 1110 1064 948 993 1340 1483 1477 1568 1550 1485 1356 1252 1210 1261 1143 1078 1106 1116 1140 1116 1058 1157 1328 1638 1746 1618 1354 503 614 566 727 888 1039 1106 1130 1058 632 371 222 183 86 29 20 23 16 46 52
1305 1375 1493 1684 1821 1977 2098 1914 1940 2002 1935 1845 1856 1896 1940 1980 1932 1990 2082 2091 1998 1864 1794 1682 1706 1606 1657 1619 1631 1682 1708 1678 1609 1618 1610 1564 1401 1226 1162 1116 1119 1407 1500 1531 1548 1604 1589 1397 1278 1241 1223 1106 1016 989 1080 1102 975 1024 1024 1248 1639 1690 2000 1762 1497 497 434 601 793 864 874 910 1122 990 938 362 55 58 59 46 13 30 24 15 23
1286 1254 1473 1627 1734 1837 1864 1981 1980 1981 1877 1908 1978 2053 2038 1975 2038 2067 1954 1896 1847 1805 1800 1739 1785 1543 1722 1694 1641 1671 1701 1639 1540 1509 1529 1512 1352 1302 1335 1436 1473 1472 1458 1337 1424 1477 1463 1362 1223 1176 1135 1181 1170 1152 989 1021 1004 1205 1425 1242 1655 1911 2036 2235 1548 469 523 659 854 939 887 972 1129 784 621 542 394 72 22 22 21 27 18 8 7
1360 1243 1402 1589 1647 1590 1665 1860 1997 2013 2007 2015 2029 2015 1900 1939 1966 1850 1818 1898 1862 1763 1599 1496 1580 1675 1774 1766 1718 1728 1683 1601 1530 1535 1470 1407 1403 1432 1445 1412 1435 1278 1221 1208 1242 1283 1355 1288 1149 1094 1063 1184 1139 1089 1046 856 808 908 1360 1674 1670 1919 2067 2343 1519 641 477 697 853 864 749 646 846 703 524 418 355 299 279 194 51 15 8 1 3
1386 1255 1147 1384 1362 1524 1684 1747 1695 1661 1756 1956 1991 1879 1936 1872 1787 1776 1828 1875 1824 1622 1492 1440 1277 1742 1783 1737 1656 1620 1597 1556 1627 1648 1471 1383 1425 1402 1348 1283 1251 1198 1096 891 1048 1185 1148 1200 1130 1096 1088 970 869 890 915 876 810 1123 1426 1694 1872 1929 2241 2478 1349 594 589 876 754 733 615 868 886 580 502 466 466 370 297 128 78 63 35 16 4
1475 1128 1016 1210 1336 1493 1631 1615 1552 1387 1448 1587 1634 1759 1718 1826 1831 1852 1820 1757 1713 1695 1642 1649 1653 1787 1840 1715 1688 1689 1688 1629 1557 1576 1467 1409 1419 1382 1323 1281 1242 1116 1039 933 970 1136 1213 1173 1142 1112 1006 891 795 790 920 907 849 856 1152 1470 1769 2148 2577 1728 825 859 843 777 714 600 592 882 797 616 603 503 452 290 194 173 130 78 72 60 22
1123 946 907 1038 1220 1468 1486 1457 1311 1271 1389 1484 1524 1637 1847 1984 1934 1855 1822 1740 1724 1709 1619 1391 1442 1469 1514 1601 1662 1734 1796 1622 1544 1578 1474 1459 1430 1358 1360 1273 1163 1087 1081 1009 1045 1085 1014 1084 985 1022 980 1022 926 971 966 876 807 1106 1123 1500 1826 2483 1377 1254 988 877 718 773 750 537 834 979 831 639 581 557 489 541 301 195 124 117 103 86 59
1082 848 964 1053 1200 1267 1176 1228 1196 1150 1241 1364 1383 1512 1779 1869 1705 1811 1673 1580 1589 1571 1284 1158 1027 965 902 962 1024 1339 1556 1604 1628 1574 1552 1489 1391 1351 1327 1228 1149 1062 1039 998 914 884 915 938 1033 787 1086 966 1020 958 966 965 873 881 1321 1377 1948 1443 1384 893 728 664 523 655 715 740 1175 1044 744 698 566 415 465 470 456 333 273 240 128 115 89
1012 819 805 998 1041 990 1042 1096 1011 943 1043 1171 1198 1297 1298 1343 1326 1284 1389 1235 1286 1344 1158 820 888 555 634 573 1022 1288 1449 1377 1472 1622 1453 1507 1323 1315 1272 1223 1127 1064 930 916 906 875 890 960 804 730 942 751 982 860 838 1106 923 931 1127 1290 1456 1157 1309 552 528 533 599 652 794 1020 1155 1050 782 731 633 467 542 560 564 539 347 252 215 206 173
1082 915 836 814 872 857 922 980 923 760 860 961 1014 1126 1232 1072 1029 1181 1368 1390 1417 1401 948 822 465 432 392 649 880 976 1071 1363 1489 1570 1537 1465 1409 1320 1292 1267 1169 1028 903 840 904 783 687 575 660 533 514 628 658 593 553 292 426 884 1194 1171 922 1064 1019 600 613 560 711 864 908 1290 1255 1108 812 738 580 628 606 619 603 576 295 189 193 183 180
1178 976 888 772 699 779 851 963 869 675 670 805 927 999 1085 868 1008 1222 1184 1077 948 826 643 482 433 412 452 578 708 842 819 1114 1596 1406 1624 1383 1275 1307 1332 1333 1267 1087 969 943 723 751 634 719 626 762 892 737 373 149 99 22 70 391 445 559 825 954 1152 617 547 630 906 1357 1150 1484 1287 1020 886 627 666 686 667 682 706 635 470 286 235 178 113
1122 984 926 824 724 730 814 978 829 605 579 627 782 880 832 740 706 666 551 760 899 778 576 454 416 430 546 555 536 685 674 1138 1187 1230 1194 1212 1173 1133 1201 1144 1118 1089 1129 880 897 765 927 546 330 455 434 212 286 271 222 294 104 150 359 486 783 1055 1408 804 679 851 1032 1164 1422 1555 1365 1244 1005 615 643 744 726 739 702 630 502 420 266 182 132
1152 1075 984 684 770 755 864 950 884 679 502 495 676 764 697 644 602 437 382 752 967 737 609 502 498 585 655 678 754 678 826 1043 973 964 1113 1182 1239 1269 1200 1065 1063 964 1043 706 642 494 592 730 703 552 368 15 19 212 369 363 403 168 233 451 1020 1059 1148 859 697 858 1015 1165 1438 1527 1432 1325 980 405 895 857 712 672 693 567 432 346 245 170 160
1350 1208 1075 817 690 776 848 1013 892 737 620 503 717 723 715 794 598 572 372 630 771 796 660 572 544 634 621 849 716 799 1024 941 860 800 948 1069 1101 1070 920 958 908 717 642 624 423 430 362 407 466 555 660 720 721 635 274 345 351 424 364 564 803 786 961 663 625 950 1048 1084 1375 1427 1311 1227 1010 599 576 879 718 647 810 606 534 490 216 167 186
1212 1151 778 796 835 922 1007 1080 960 828 648 716 684 735 696 730 654 686 560 622 639 704 774 675 548 545 895 969 668 933 1034 899 838 788 704 915 952 868 760 714 521 175 322 312 344 305 323 439 782 808 781 698 448 99 22 223 512 397 370 617 754 984 563 720 574 892 978 1072 1156 1381 1190 1236 1240 845 479 483 697 812 855 692 603 562 360 202 163
1232 979 939 815 913 1017 1074 1125 1060 883 754 844 749 770 683 633 672 582 600 821 573 860 832 732 663 731 752 835 721 871 996 916 861 768 740 821 673 610 597 562 570 604 684 542 594 436 329 839 778 645 490 305 235 76 184 116 190 326 454 583 630 560 619 637 606 849 889 942 1052 1321 1220 1107 1238 965 743 618 550 584 665 553 388 576 453 270 202
1158 988 763 719 1021 1069 1073 1106 1073 873 853 852 761 760 782 612 533 548 668 728 800 985 981 776 705 834 688 736 817 857 996 772 772 769 799 898 640 612 601 471 607 603 696 1065 963 807 562 600 595 714 657 612 270 180 141 141 11 32 240 425 412 324 614 781 709 743 844 926 1035 1167 1335 1191 1277 1082 908 633 570 534 467 410 313 258 508 353 259
1204 744 662 707 952 1089 1161 1008 967 1031 1011 970 856 829 723 582 532 486 643 683 840 1009 1090 964 995 1075 736 750 969 806 1013 1210 1006 972 924 864 846 911 781 573 805 688 697 1180 1143 1121 801 573 737 782 703 561 342 192 230 54 22 129 338 404 388 492 481 672 746 851 863 908 833 874 1236 1369 1282 1035 989 866 707 518 552 456 245 243 618 641 566
1265 896 939 864 890 1108 1200 1157 969 1044 1073 861 902 936 803 716 491 485 553 670 833 1080 1229 1176 1195 1166 935 776 1094 1049 1262 1278 985 1038 1081 963 1012 1059 1082 979 856 1152 1126 984 1061 1159 1005 864 1093 988 950 531 395 324 160 159 44 64 171 398 573 504 458 669 742 741 823 795 728 753 723 988 1212 1084 881 859 952 698 397 434 360 211 352 868 808
1117 1029 934 789 1062 1187 1266 1168 1139 1169 1096 1038 1114 1156 1050 838 789 706 643 743 966 1196 1280 1216 1143 1125 981 1030 1079 1117 1291 1219 1054 1004 1225 1109 1000 988 1065 1068 1038 1116 1163 992 1187 1126 1299 1414 1232 990 914 692 476 206 216 115 53 123 247 327 427 719 746 644 853 832 748 670 672 642 657 626 662 927 1090 1433 1116 1123 549 365 348 312 262 619 622
1064 957 760 736 1068 1295 1221 1244 1345 1144 997 1068 1119 1199 1004 900 841 750 891 812 1236 1294 1240 1139 1019 920 926 1004 1060 1214 1341 1139 942 923 848 868 946 910 1003 960 1148 1236 1071 990 1131 1180 1252 1238 1126 975 940 589 318 184 187 167 172 186 319 444 371 499 466 691 618 802 756 607 644 580 581 466 499 697 1127 1194 870 890 792 624 432 337 323 258 243
851 830 689 885 1077 1153 1255 1267 1282 1159 1116 1190 1162 1076 934 790 996 1037 1271 1442 1496 1374 1115 811 880 1026 1055 1182 1192 1208 1172 1039 945 925 846 760 829 692 833 939 1161 1149 1038 875 1176 980 1192 1302 1166 1012 743 454 366 284 148 136 198 345 350 360 515 610 434 419 778 842 887 873 740 584 537 415 436 578 645 692 1107 831 827 706 508 430 349 278 293
1016 971 858 813 1207 1232 1321 1282 1227 1401 1313 1252 1065 1007 947 1019 1164 1623 1560 1578 1428 1145 1097 1080 1228 1224 1294 1341 1288 1153 1166 1086 1086 815 746 569 540 595 659 1162 1207 1136 1085 836 1079 1043 1082 1204 1068 864 518 554 467 234 145 102 207 497 419 409 393 341 221 233 664 774 875 859 699 534 455 396 458 590 784 527 659 864 1024 1186 1009 886 532 425 418
1200 902 775 1102 1364 1378 1374 1347 1208 1244 1214 1132 1277 1435 1394 1562 1745 1643 1409 1253 1184 1308 1510 1506 1462 1484 1253 1264 1307 1261 1226 1086 901 886 735 588 664 610 795 918 1186 1099 1048 908 1006 1034 967 894 737 660 340 344 445 465 386 220 220 351 506 353 418 411 373 379 424 636 747 838 730 550 444 386 688 1667 636 401 631 901 1394 1547 1448 1259 1289 1296 1112
1089 911 811 1205 1448 1425 1401 1368 1378 1235 1252 1370 1446 1480 1453 1513 1664 1444 1288 1130 974 1129 1604 1589 1382 1288 1341 1260 1312 1203 1119 1021 898 849 818 754 716 716 709 797 1083 964 937 913 1045 935 1014 995 731 654 591 372 316 373 430 449 371 445 630 426 276 300 355 528 817 1289 750 842 852 864 751 644 757 779 832 662 669 801 1008 1253 1457 1396 1173 933 1092
1070 992 788 1250 1462 1405 1483 1576 1500 1389 1326 1303 1282 1115 1006 942 1032 976 883 1020 1112 1200 1428 1648 1428 1241 1305 1339 1270 1189 1115 963 819 852 760 751 772 747 732 804 1045 978 1064 1057 968 1004 895 885 842 538 468 494 457 352 302 363 372 501 656 539 397 353 428 617 736 861 1057 1043 1069 1062 932 842 778 838 864 715 825 724 652 842 763 738 730 1193 1273
905 928 975 1467 1470 1398 1470 1455 1302 1113 1057 1042 904 769 680 841 906 811 846 963 1018 1197 1250 1153 974 1066 1174 1245 1266 1176 1080 921 1038 893 793 741 718 748 772 797 892 890 1016 994 869 854 733 761 808 660 767 600 267 212 204 203 126 310 537 568 536 601 637 661 834 805 724 884 795 746 881 876 921 960 994 1012 995 840 719 786 804 820 804 1058 1231
1031 898 1319 1324 1301 1228 1293 1112 939 844 769 820 923 858 707 662 706 712 686 680 646 738 919 831 800 899 959 1026 1210 1197 1062 990 1139 1037 933 1058 613 650 713 757 829 812 853 712 867 777 711 876 957 851 714 464 432 389 375 124 71 314 330 344 512 588 671 659 714 702 572 565 493 572 674 743 770 727 836 850 901 844 695 740 704 770 710 755 642
964 1045 947 1214 991 1211 1174 959 829 781 799 838 754 612 674 778 765 775 842 835 700 740 761 771 814 839 835 880 939 1065 1138 1071 1194 1143 1096 944 701 767 766 778 935 862 768 812 672 624 805 1050 1032 990 844 718 696 499 392 53 77 296 314 333 336 416 357 517 385 499 613 631 640 561 705 738 714 669 636 712 756 705 752 828 878 813 750 665 455
802 526 937 1224 1013 1141 1006 958 864 862 869 990 1157 1277 1270 1054 1229 853 751 591 611 615 664 709 688 753 780 862 852 899 1061 1011 1026 970 1044 859 716 731 766 664 899 916 848 714 836 733 948 1122 1032 1002 1079 824 709 641 496 692 23 347 124 155 243 245 335 189 260 344 512 557 625 674 792 822 1005 655 600 758 775 594 708 779 748 758 730 569 290
747 789 952 1114 1231 1160 1087 1038 1126 1077 1088 1384 1300 1154 1082 903 732 646 490 512 619 551 405 486 658 683 628 822 965 869 1021 992 1011 982 945 904 979 881 855 781 731 876 752 777 954 1066 1102 1146 1110 1139 1002 632 564 592 638 488 93 307 250 222 112 138 258 154 193 255 234 408 283 278 561 808 725 970 566 604 531 506 553 812 776 672 595 518 80
942 865 900 977 1057 1292 1248 1246 1295 1215 1220 1185 1022 934 796 567 427 130 165 255 168 0 14 154 426 677 595 587 574 448 786 1064 1032 906 1008 1121 1038 1044 862 812 729 738 1093 944 935 1049 972 1088 1127 1158 1004 747 647 498 597 560 240 533 278 16 27 228 262 162 235 118 101 221 420 319 546 763 1019 810 746 552 458 256 286 592 736 529 198 130 0
703 734 702 711 1169 1412 1384 1302 1190 1094 1159 1056 780 641 536 72 178 334 359 275 13 10 43 130 448 187 301 306 326 187 318 350 938 961 1052 959 905 880 916 1056 948 1003 1190 1165 1095 1120 954 1083 1194 1175 876 664 603 560 562 554 561 636 1003 1413 600 101 335 164 43 0 73 152 185 494 423 435 389 553 283 183 175 239 322 212 20 60 86 56 0
718 642 892 986 1307 1448 1329 1179 1017 1004 1052 898 552 431 324 396 430 419 404 384 122 345 13 0 4 78 168 330 350 71 105 88 218 524 756 717 626 775 905 930 937 1265 1121 1276 1093 1144 1134 1182 1171 1175 866 619 594 415 492 628 518 859 906 896 750 452 359 297 6 0 0 0 0 40 43 223 309 190 97 62 88 10 189 0 0 0 0 0 0
795 945 1149 1268 1403 1351 1264 1074 1007 1030 931 748 407 146 375 478 460 431 581 592 478 148 95 0 2 34 363 379 142 0 2 112 124 161 262 283 539 804 857 926 866 968 1064 1241 1219 1143 1054 1023 1116 933 897 812 705 511 642 706 788 779 831 833 380 373 361 30 39 0 0 0 0 0 0 0 0 0 0 0 0 0 0 0 0 0 0 0 0
1015 1236 1316 1341 1393 1312 1249 1011 929 906 850 688 326 398 463 423 394 420 629 806 454 50 0 0 0 2 18 51 59 20 11 5 0 114 87 145 197 156 296 141 328 831 905 838 845 947 794 728 757 833 930 617 675 572 501 684 823 784 734 729 557 509 565 542 156 0 0 0 0 0 0 0 0 0 0 0 0 0 0 0 0 0 0 0 0
968 1108 1253 1314 1318 1318 1221 923 737 827 781 636 431 489 435 360 344 438 635 601 533 336 54 0 0 0 59 131 2 0 0 8 10 42 3 98 361 181 112 140 406 650 628 836 936 759 639 539 816 847 934 811 730 487 395 672 741 836 747 618 546 460 444 158 34 0 0 0 0 0 0 1 1 1 0 0 0 0 0 0 0 0 0 0 0
752 946 1081 1310 1294 1268 1036 798 682 764 701 474 356 392 400 327 306 414 533 600 603 402 236 32 10 102 6 17 0 0 18 15 58 26 12 78 194 175 51 50 33 204 238 730 530 545 631 704 881 666 883 727 580 618 471 374 413 713 767 586 532 433 375 21 35 6 0 0 0 2 0 1 3 0 0 0 0 0 0 0 0 0 0 0 0
Wind_Speed
25 29 28 33 35 37 38 39 39 39 41 40 40 39 40 39 38 38 38 37 37 36 35 34 34 33 33 32 31 31 32 33 33 32 31 31 31 30 31 30 30 30 29 28 27 27 26 25 24 23 22 23 23 22 22 21 20 20 20 19 17 17 18 19 20 21 20 21 21 21 19 20 nan nan nan nan nan nan nan 15 13 10 7 12 17
30 28 27 30 36 37 38 38 39 40 41 41 40 39 39 38 38 39 38 38 37 36 35 35 35 35 34 33 32 31 31 32 32 32 31 29 29 29 29 29 30 29 29 27 26 26 25 25 24 23 24 24 23 23 22 20 19 18 18 18 18 17 17 17 19 19 19 19 20 22 21 21 nan nan nan nan nan nan nan 15 13 9 7 16 17
33 29 26 31 35 37 38 39 40 41 41 41 41 38 39 38 38 38 39 39 37 36 34 35 35 35 35 34 33 31 31 31 31 31 31 29 27 27 27 28 27 28 29 28 26 24 24 24 23 23 23 24 23 22 20 18 17 17 16 15 14 14 15 16 17 18 19 19 20 21 22 22 21 nan nan nan nan nan nan 17 17 15 12 18 17
32 25 25 31 35 36 38 40 40 42 41 40 38 37 37 37 38 38 39 38 37 36 35 36 35 36 35 34 33 32 31 30 30 30 29 27 26 26 27 27 28 27 27 27 25 23 22 23 23 23 22 23 21 19 18 17 15 15 14 14 14 15 14 14 15 17 19 20 19 17 11 11 15 nan nan nan nan nan nan 18 18 18 20 18 19
32 27 26 27 30 36 39 41 41 42 40 39 38 38 38 38 38 38 37 36 36 36 36 36 37 37 36 34 33 32 30 29 29 28 28 26 23 25 25 26 27 26 25 24 23 22 21 22 22 22 22 21 19 17 15 13 14 14 14 13 13 13 13 10 12 12 17 21 17 12 9 11 11 18 nan nan nan nan nan nan nan 19 19 20 19
33 30 29 30 31 36 41 42 42 42 39 39 37 38 38 38 39 37 37 37 37 37 36 36 37 37 36 34 32 30 30 29 29 27 24 24 21 23 24 25 25 24 23 23 21 21 21 21 22 22 21 20 18 14 12 12 13 14 13 13 13 12 10 10 7 7 1 6 14 10 nan 11 11 13 nan nan nan nan nan nan nan 19 19 20 18
36 32 31 32 32 35 40 41 42 39 38 37 37 38 38 38 38 38 38 38 37 37 37 37 36 36 35 34 31 30 29 28 28 27 25 23 21 21 24 24 24 23 22 22 20 21 20 20 21 21 21 20 17 13 11 12 13 13 12 12 12 10 9 7 6 3 4 5 7 8 9 12 12 12 19 nan nan nan nan nan nan 17 18 17 16
36 32 32 32 32 36 39 40 40 38 37 37 37 37 38 38 38 38 39 38 38 37 37 36 36 35 35 33 32 30 29 29 28 26 24 21 19 20 23 23 23 22 20 20 20 19 19 19 20 20 20 19 15 13 11 12 13 12 12 11 11 10 8 7 6 5 4 3 4 7 10 12 13 12 19 20 21 nan nan nan nan nan nan nan nan
36 35 33 33 33 39 38 37 37 38 37 37 37 38 38 38 38 39 39 38 38 38 38 36 35 35 35 34 33 31 30 29 29 28 27 26 25 25 24 22 20 20 19 18 17 15 18 19 19 20 21 18 14 12 12 12 12 11 11 10 11 10 9 9 8 8 4 7 9 7 10 13 13 12 17 18 nan nan nan nan nan nan nan nan nan
35 33 34 32 33 37 36 35 35 38 37 37 37 39 38 38 38 38 38 40 39 38 38 37 35 36 35 35 33 33 32 30 29 28 27 27 27 27 26 24 23 21 20 19 19 18 19 21 20 21 20 17 14 12 12 12 11 10 10 11 12 12 11 10 11 9 7 10 10 10 11 15 12 13 17 nan nan nan nan nan nan nan nan nan nan
35 34 33 33 33 35 34 34 34 35 36 37 39 39 39 39 39 38 39 39 39 38 37 36 36 36 36 35 35 34 33 32 30 29 28 27 26 26 27 26 24 21 19 19 16 19 21 20 20 21 21 17 13 12 11 11 10 10 11 12 12 12 11 11 10 5 8 11 9 9 14 18 12 11 17 18 19 nan nan 20 nan nan nan nan nan
35 33 32 31 34 33 33 33 33 34 36 38 39 39 39 38 38 38 38 38 38 38 36 36 35 36 37 36 36 36 35 34 32 31 29 28 28 27 27 26 25 23 20 18 20 22 20 20 20 21 20 18 13 12 11 10 11 10 11 12 12 11 12 12 8 7 8 10 10 9 10 12 12 15 20 18 18 19 20 nan nan nan nan nan nan
34 32 30 28 28 31 32 33 35 35 37 38 38 39 38 37 37 37 37 36 37 37 36 35 34 34 35 37 37 36 36 34 33 32 30 29 28 29 28 27 25 24 22 20 21 21 20 19 19 20 19 19 15 12 11 10 10 11 11 12 12 12 12 12 6 7 8 10 10 11 11 9 10 18 19 18 18 18 nan nan nan nan nan nan nan
31 30 28 27 25 32 33 33 35 36 37 37 37 36 35 36 37 37 37 37 36 35 34 34 34 35 35 36 37 36 35 34 32 32 31 29 29 30 30 28 25 24 23 20 21 20 19 18 18 19 19 18 16 11 9 9 9 11 11 12 13 13 14 10 11 12 9 9 10 11 10 8 8 16 18 19 18 17 nan nan nan nan nan nan nan
31 29 27 25 26 27 34 34 35 36 36 36 36 34 35 36 37 37 37 37 35 34 34 34 33 34 36 37 36 35 35 35 33 32 32 29 29 31 31 29 26 25 24 20 20 19 18 16 16 17 18 18 17 12 9 7 9 10 10 12 13 13 14 10 10 11 10 10 9 11 9 7 13 14 17 18 nan nan nan nan nan nan nan nan nan
30 28 27 25 25 26 28 34 36 36 36 36 35 35 36 37 37 37 36 35 34 33 32 32 32 33 35 35 35 34 34 34 33 32 33 31 29 32 33 31 29 26 22 21 19 18 17 17 17 16 16 17 17 15 10 8 8 9 12 14 14 15 15 13 9 12 10 10 9 9 9 8 14 15 15 17 18 nan nan nan nan nan nan nan nan
28 27 26 26 26 26 27 28 32 38 36 34 34 35 36 35 35 35 35 34 33 32 32 32 32 31 34 35 34 34 34 33 32 32 33 33 32 34 35 33 29 25 23 20 19 19 18 17 17 16 14 15 16 15 13 8 8 9 13 15 15 14 14 15 10 13 11 12 10 9 8 9 14 15 15 16 16 17 17 17 nan nan nan nan nan
26 24 25 25 25 26 26 27 29 29 29 31 33 34 33 33 33 34 34 33 31 30 29 30 30 30 33 34 34 34 34 34 34 33 33 34 36 38 39 35 29 25 21 20 19 18 18 18 17 15 15 15 14 14 14 11 8 11 13 15 15 14 14 16 10 13 14 13 12 10 8 11 15 15 15 15 16 16 16 16 nan nan nan nan nan
23 23 24 24 25 25 26 26 27 26 25 24 24 28 32 32 34 35 34 32 30 29 29 29 30 30 32 33 33 33 34 36 38 37 34 36 39 40 37 32 26 22 20 20 19 19 18 17 16 15 15 14 14 14 14 12 8 10 13 14 14 13 15 12 12 15 16 13 12 11 10 15 15 16 15 15 16 15 16 17 17 nan nan nan nan
22 22 22 22 23 24 24 25 25 24 22 23 25 26 31 35 35 35 34 32 31 31 31 29 30 32 32 32 32 31 33 33 39 39 39 38 39 34 31 26 22 19 19 19 18 17 17 15 14 14 15 14 13 15 14 13 9 11 13 14 13 16 16 12 15 15 15 14 14 13 14 16 17 17 16 15 15 16 16 16 16 16 17 nan nan
21 21 22 23 24 25 25 25 24 25 25 27 27 28 31 36 35 36 34 33 32 32 32 30 29 29 27 28 28 26 27 28 35 39 40 34 34 29 24 22 20 19 18 18 15 14 14 14 12 13 15 14 13 14 14 13 9 11 13 14 15 17 16 16 15 15 16 16 15 14 18 18 18 18 16 15 14 15 16 15 16 16 16 17 nan
22 21 21 23 24 23 24 24 24 26 27 26 25 25 28 32 28 28 28 29 28 28 26 23 26 23 26 26 22 21 21 26 34 38 31 30 27 23 19 19 19 18 17 16 14 12 12 13 12 13 15 15 13 15 15 13 9 11 14 14 16 17 16 16 16 16 17 16 15 16 20 19 20 18 17 16 15 15 16 16 16 16 16 17 18
22 22 22 23 24 22 23 23 22 26 28 26 24 25 28 29 28 27 27 27 24 23 22 25 24 21 22 21 18 17 18 25 30 29 25 24 21 19 18 18 18 17 17 16 15 13 12 12 11 13 14 15 16 16 15 15 12 11 14 16 15 18 17 17 18 18 18 16 16 20 19 20 21 19 18 18 17 16 15 17 16 16 16 16 17
24 22 23 25 26 24 24 22 23 26 27 25 25 25 27 27 25 26 24 20 20 21 21 23 21 17 19 16 16 15 18 21 25 27 23 17 15 17 18 17 17 17 17 16 15 13 11 11 11 11 14 15 15 16 nan nan nan 14 16 15 15 17 17 17 20 20 19 17 17 21 21 21 20 19 19 18 18 17 16 17 17 16 16 16 17
25 23 23 25 26 24 23 21 22 26 27 26 26 24 25 24 23 22 19 15 16 16 18 18 17 15 14 12 12 13 11 11 15 19 17 13 11 12 12 13 13 14 16 14 13 13 12 12 12 13 13 13 14 15 15 14 15 15 16 15 15 19 18 17 20 20 20 19 18 21 21 21 20 19 20 19 19 18 18 18 18 17 16 16 17
28 26 23 25 23 22 22 23 24 26 27 26 24 24 24 23 20 17 16 13 13 12 13 14 15 14 12 10 9 9 7 8 10 13 12 10 10 11 11 13 15 16 16 15 12 9 9 10 11 12 12 nan nan 15 14 14 15 16 15 17 18 25 19 18 20 22 21 20 20 23 22 23 21 19 23 21 20 20 20 20 19 18 17 17 17
28 27 25 19 22 21 22 25 25 25 27 27 25 25 23 19 17 15 16 11 10 11 10 10 13 11 10 10 10 8 7 7 8 9 10 11 13 13 14 15 15 16 15 13 11 8 6 7 8 9 10 11 13 14 12 10 13 17 16 21 31 26 21 17 19 22 21 21 21 25 24 24 22 22 23 23 22 22 21 21 20 19 19 18 18
31 29 24 22 23 23 23 24 24 25 27 28 27 24 20 17 15 15 13 10 9 9 9 10 11 10 10 11 11 11 10 10 9 10 10 12 12 12 12 13 13 13 13 13 10 8 7 6 8 9 10 12 15 nan nan 15 17 17 23 27 23 24 20 19 18 21 21 21 22 25 25 22 24 25 23 24 24 24 23 22 21 21 21 19 19
31 27 21 23 24 24 25 25 25 26 26 28 28 22 17 16 14 12 11 11 11 12 13 12 9 9 10 10 12 11 10 10 9 9 9 9 9 8 9 9 10 11 13 11 9 7 7 9 11 10 10 12 14 nan 20 20 18 24 22 19 22 20 22 23 18 19 20 22 23 24 26 25 24 25 24 25 25 24 24 23 22 22 22 21 19
28 26 23 22 24 25 25 25 25 24 25 27 24 19 16 15 14 13 13 14 11 10 10 9 8 10 10 9 9 8 7 8 8 8 9 8 7 6 7 7 9 9 11 8 7 8 7 8 10 12 12 12 15 17 20 24 nan nan 21 22 25 20 15 14 16 19 22 23 23 22 26 26 25 23 23 25 24 23 23 23 22 21 21 20 20
26 24 21 22 23 23 22 23 22 22 23 25 20 16 16 16 15 15 14 12 9 7 8 10 12 11 8 4 4 5 6 6 7 7 7 7 6 6 5 6 6 7 6 6 5 6 7 7 9 9 11 13 15 15 20 nan nan 21 20 21 18 15 13 14 18 20 18 19 21 21 24 28 26 26 24 23 22 23 23 22 21 20 20 19 21
24 22 23 23 23 22 22 22 21 22 23 21 20 18 17 16 16 15 13 10 9 9 12 12 12 9 5 3 3 4 4 4 6 6 7 7 6 5 5 5 5 5 6 6 4 6 6 5 6 6 10 12 14 16 20 22 nan nan 16 17 16 17 17 19 16 17 16 17 18 19 20 20 23 23 24 24 21 21 22 22 21 20 19 20 20
21 23 25 26 23 22 21 21 21 22 21 20 19 17 18 18 16 13 12 11 10 10 11 10 8 6 4 3 4 5 3 3 4 7 7 6 6 4 3 3 5 4 6 6 6 6 6 5 4 7 10 12 15 16 18 18 nan 17 15 15 15 15 16 17 15 15 14 14 14 14 15 14 15 20 22 23 23 21 21 21 21 19 21 20 19
23 24 25 26 22 20 18 18 19 21 19 17 16 16 18 17 13 10 10 11 10 11 9 8 7 6 5 5 4 3 2 2 5 8 7 6 5 2 2 2 3 3 4 5 7 7 7 6 6 8 10 11 13 12 15 17 16 16 15 12 12 12 13 13 12 9 11 11 11 12 12 12 13 16 17 20 21 22 21 21 20 19 18 20 19
25 23 24 24 22 20 18 16 19 21 18 14 15 16 16 13 9 8 10 12 10 9 9 10 9 7 8 6 5 4 2 3 6 9 6 6 6 4 2 1 3 3 4 5 7 6 7 7 7 8 9 9 9 10 13 13 15 18 15 13 12 13 12 12 8 7 9 8 8 9 11 14 15 15 15 15 17 18 19 18 18 18 18 19 19
26 24 24 22 20 19 17 17 19 20 15 14 14 16 15 12 8 8 11 11 10 11 12 11 10 10 9 7 6 4 2 4 7 8 7 6 6 6 3 1 1 4 4 3 5 7 6 7 7 7 8 6 8 8 8 11 12 15 14 14 11 10 10 11 7 7 6 7 8 10 12 13 14 14 15 15 15 15 17 17 17 16 17 18 16
26 26 25 20 19 21 20 19 19 18 15 14 14 14 15 12 9 8 11 12 12 12 11 11 11 10 9 8 7 4 2 4 5 8 8 6 6 6 5 3 2 4 4 3 5 6 6 6 6 7 8 8 6 4 4 8 11 13 12 12 8 4 9 10 6 7 7 7 7 10 12 11 11 14 15 14 14 15 16 17 18 18 19 19 19
29 30 28 22 21 22 22 20 19 17 14 12 11 13 12 10 8 8 9 10 10 10 9 12 13 10 9 7 7 5 5 5 6 8 10 8 8 7 5 4 3 5 4 3 4 5 6 8 8 6 7 7 5 2 2 8 11 12 10 7 9 9 9 11 9 7 8 7 7 10 12 10 9 10 13 14 14 14 14 15 16 17 17 18 18
30 34 34 26 24 23 22 21 20 18 15 12 10 12 12 10 9 9 8 7 8 10 11 13 12 10 9 9 8 7 7 8 8 10 10 9 9 8 6 4 4 5 5 4 4 4 5 6 9 7 6 6 4 3 5 9 12 12 9 7 9 12 11 11 14 9 7 5 7 10 10 10 9 9 11 12 12 11 11 11 12 13 14 17 17
34 37 34 29 24 23 21 21 21 19 17 14 12 12 13 12 11 9 10 9 11 13 12 12 12 11 11 10 9 8 8 8 8 10 10 9 9 9 8 6 5 4 5 5 3 4 4 5 8 8 8 6 5 4 7 11 12 11 9 6 9 11 9 9 11 12 4 1 7 9 8 8 9 10 9 10 11 11 10 9 10 12 13 15 18
39 40 34 26 27 21 20 21 20 18 18 16 13 13 13 13 11 12 13 13 14 15 15 14 13 13 13 13 12 11 10 9 10 11 10 10 10 10 8 6 5 4 4 4 4 4 4 4 6 7 9 8 5 4 5 9 nan 9 8 8 10 10 9 14 11 8 7 7 8 5 4 8 8 9 7 8 9 10 9 9 9 11 12 13 15
40 40 34 23 24 19 19 20 19 18 17 15 14 12 12 13 14 13 13 15 19 22 19 16 15 14 14 13 12 12 12 11 11 11 10 10 10 10 9 7 5 5 5 5 5 5 4 4 6 7 7 8 7 6 6 nan nan 8 9 10 11 11 14 13 11 11 7 6 7 8 7 7 7 7 7 8 7 7 7 8 9 10 11 12 12
41 39 31 25 23 20 20 20 18 18 16 15 13 13 12 13 13 14 18 17 20 22 19 17 16 16 15 16 14 12 13 11 11 11 10 8 7 8 8 6 5 6 7 5 6 6 5 5 7 8 8 6 7 5 4 7 nan 9 8 13 12 12 12 13 13 9 5 6 8 6 6 8 8 7 8 9 6 5 6 8 9 9 11 11 12
38 31 25 25 22 22 23 21 18 17 17 15 15 15 17 16 16 19 19 22 23 20 19 19 18 18 16 15 13 13 12 12 11 11 10 9 7 7 7 7 6 5 7 6 6 6 6 6 6 7 8 10 8 6 3 5 nan 14 10 9 10 12 15 13 12 6 3 4 8 5 5 7 8 7 7 4 5 6 7 7 9 11 11 12 nan
34 30 25 22 19 19 19 19 18 17 16 14 15 16 19 20 21 21 22 23 23 nan nan 21 19 18 17 16 15 14 13 13 11 11 10 10 8 7 7 7 7 6 6 6 6 7 7 6 8 9 8 10 9 8 5 6 9 10 13 nan nan 10 10 15 15 8 5 6 7 8 6 6 8 8 7 7 7 7 7 8 11 14 16 16 nan
34 30 28 23 20 20 19 19 18 16 15 13 14 15 17 nan 20 21 21 20 nan nan nan 21 20 19 17 14 14 12 10 11 12 9 9 9 9 8 7 8 8 7 7 7 8 9 7 6 7 11 11 9 12 12 8 6 8 8 9 11 11 11 15 15 nan nan nan 7 8 9 9 8 9 9 10 10 9 8 8 13 nan nan nan nan nan
33 31 31 25 24 23 23 21 18 15 14 14 15 16 16 14 15 17 19 20 23 22 nan nan nan nan 16 15 13 nan 11 nan 9 8 8 8 8 8 8 8 8 8 8 9 9 10 11 9 9 12 12 13 13 12 13 9 9 9 9 12 11 12 15 15 nan nan nan nan nan nan nan 9 11 10 nan nan nan nan 14 nan nan nan nan nan nan
35 32 29 23 20 23 22 20 16 14 14 16 17 15 17 16 17 18 18 17 18 18 nan nan nan nan 16 14 13 nan nan 9 8 7 6 7 9 11 10 9 9 8 9 10 10 10 12 13 15 12 15 14 14 16 14 12 12 9 10 13 14 15 14 nan nan nan nan nan nan nan nan nan nan nan nan nan nan nan nan nan nan nan nan nan nan
28 26 20 19 17 19 18 16 15 15 15 16 16 13 16 17 18 19 19 15 16 nan nan nan nan nan nan nan nan nan nan nan nan 8 nan 8 9 10 10 10 9 11 11 10 11 13 12 12 13 14 16 15 15 15 16 13 13 12 13 13 17 16 16 15 16 nan nan nan nan nan nan nan nan nan nan nan nan nan nan nan nan nan nan nan nan
24 19 18 15 17 17 16 15 14 13 13 13 12 11 13 15 17 18 18 13 14 18 nan nan nan nan nan 13 nan nan nan nan nan nan nan nan 10 11 13 12 12 13 12 13 18 17 16 14 12 14 14 16 17 18 16 15 14 12 13 14 15 14 14 15 nan nan nan nan nan nan nan nan nan nan nan nan nan nan nan nan nan nan nan nan nan
25 30 28 22 16 12 12 13 13 12 12 11 10 12 14 14 14 13 11 11 15 17 16 nan nan 11 nan nan nan nan nan nan nan nan nan nan 9 9 nan nan nan 11 11 12 13 18 15 14 16 13 13 16 16 17 18 17 16 15 15 15 14 13 12 nan nan nan nan nan nan nan nan nan nan nan nan nan nan nan nan nan nan nan nan nan nan
Wind_Direction
276 285 286 290 291 292 293 293 294 295 297 298 299 300 302 304 305 304 302 299 299 299 300 300 298 296 295 294 292 289 285 281 280 281 284 288 291 291 292 293 296 296 296 293 292 291 286 285 282 279 277 273 273 275 275 272 272 272 273 271 269 271 273 274 268 264 263 254 251 248 246 241 nan nan nan nan nan nan nan 233 226 221 211 244 253
286 283 284 288 291 292 292 292 294 295 296 297 298 301 303 304 304 303 299 298 298 299 300 298 296 296 296 294 292 290 288 284 282 283 286 290 291 292 294 296 297 298 296 295 291 288 287 284 282 281 277 275 273 272 272 273 273 275 275 275 272 271 269 272 273 271 263 258 255 252 248 245 nan nan nan nan nan nan nan 236 243 222 215 245 249
282 283 281 285 291 293 293 293 295 295 295 297 299 302 303 303 302 299 298 297 298 299 299 296 295 295 296 295 293 292 290 288 286 286 288 292 292 291 293 295 295 298 297 294 289 288 285 283 283 281 278 275 273 271 272 273 275 277 278 278 275 272 278 279 279 277 269 261 255 252 252 247 242 nan nan nan nan nan nan 229 233 239 231 242 245
283 281 280 287 291 292 293 293 293 294 295 297 301 303 302 301 300 298 297 298 299 298 297 296 296 296 295 295 294 293 292 292 291 291 292 294 294 295 298 297 296 297 295 293 292 289 285 283 282 281 276 274 273 271 274 275 276 273 273 273 271 272 274 283 283 283 275 263 254 248 230 227 235 nan nan nan nan nan nan 225 226 234 240 242 244
279 279 281 283 285 290 292 293 293 294 296 299 302 302 301 299 298 297 297 297 297 297 296 297 297 297 296 294 294 293 292 292 293 294 294 291 292 296 299 298 302 301 295 292 292 288 283 282 281 282 278 271 269 271 273 276 272 267 264 264 263 267 274 272 284 288 282 274 253 236 229 232 229 239 nan nan nan nan nan nan nan 230 232 239 241
277 277 281 283 285 289 291 293 294 296 298 301 302 301 300 299 298 296 296 296 296 296 297 298 298 297 296 294 293 293 292 291 292 292 290 289 289 294 295 296 294 293 294 294 293 291 283 280 281 280 278 275 273 272 269 266 259 256 254 253 253 255 255 259 270 291 235 178 206 214 nan 225 226 229 nan nan nan nan nan nan nan 229 229 233 237
277 277 282 283 284 287 289 291 295 297 300 301 301 300 300 300 298 296 295 295 295 297 297 297 296 295 295 294 292 291 290 290 291 294 293 289 289 293 294 295 295 295 295 295 294 289 285 281 282 281 279 277 276 273 267 255 247 244 243 247 251 245 255 257 261 242 222 211 224 219 217 226 224 221 240 nan nan nan nan nan nan 228 231 232 232
274 276 279 282 282 286 289 292 296 298 300 301 301 300 301 300 297 295 294 295 295 296 297 295 294 294 293 291 290 287 286 285 287 288 286 284 287 291 294 293 293 294 295 293 292 290 287 282 282 280 280 278 277 275 265 254 243 239 237 241 245 237 233 232 225 194 177 252 239 229 224 225 227 220 236 235 231 nan nan nan nan nan nan nan nan
274 277 278 280 281 286 288 292 297 301 301 301 302 302 301 298 296 294 294 295 296 296 295 293 292 292 292 290 288 285 283 283 284 285 286 283 276 272 273 277 284 288 286 283 281 286 287 286 283 283 282 281 276 272 264 252 244 237 231 233 231 224 215 204 192 186 168 280 279 256 240 232 225 221 235 236 nan nan nan nan nan nan nan nan nan
275 277 278 278 280 286 290 294 299 302 302 302 302 301 298 295 294 294 294 296 296 295 293 290 289 289 289 287 285 283 280 277 277 278 277 277 275 276 276 275 274 282 286 286 285 288 290 287 290 287 285 278 272 260 257 251 240 230 228 225 220 212 203 195 195 203 251 274 272 260 249 246 232 227 238 nan nan nan nan nan nan nan nan nan nan
276 276 276 279 284 289 294 297 299 301 301 301 301 297 295 295 296 295 296 296 294 291 290 288 286 286 286 286 284 282 279 277 276 276 275 275 276 278 279 277 276 277 284 288 290 280 282 290 291 289 288 280 272 264 254 249 238 229 221 217 212 202 195 193 206 209 272 277 275 265 263 259 237 231 246 245 243 nan nan 242 nan nan nan nan nan
275 276 277 281 290 292 296 298 298 298 299 299 297 295 295 296 296 296 296 294 291 288 287 286 285 285 286 286 284 282 280 279 278 276 274 274 278 279 280 279 278 281 283 280 279 284 287 289 291 290 290 285 275 262 254 239 234 224 218 213 211 204 196 196 213 228 279 275 268 262 250 248 244 246 253 253 250 242 237 nan nan nan nan nan nan
277 278 280 284 288 293 295 296 297 296 296 295 294 295 295 296 297 296 293 288 286 285 284 283 281 283 285 285 284 283 280 279 279 277 273 273 276 279 278 277 278 282 284 284 286 287 290 291 290 292 290 285 275 263 249 239 229 223 215 212 210 208 204 199 240 268 278 275 273 271 266 250 247 262 256 250 247 246 nan nan nan nan nan nan nan
276 280 285 286 289 294 293 294 293 293 292 291 292 293 295 296 296 292 288 284 282 281 280 279 279 281 282 282 283 282 280 279 279 279 274 271 275 278 278 278 278 281 284 284 289 290 292 293 293 291 287 282 278 265 249 239 230 223 216 213 211 210 209 216 225 277 276 274 272 276 271 265 256 263 260 255 250 252 nan nan nan nan nan nan nan
283 286 287 287 288 289 294 291 289 289 289 290 291 294 296 294 291 288 284 281 281 281 280 280 279 279 280 280 281 281 281 281 283 282 277 272 273 276 278 278 276 275 281 286 289 290 290 289 286 285 285 285 282 278 252 239 231 224 218 217 216 211 216 234 238 277 276 271 272 277 272 263 270 266 262 258 nan nan nan nan nan nan nan nan nan
288 289 287 286 286 287 285 289 287 287 288 291 294 296 295 292 289 286 284 282 281 280 278 278 278 278 279 278 279 280 279 279 282 284 280 276 273 274 275 274 273 275 280 285 287 288 289 287 286 285 284 285 284 281 274 239 223 221 219 219 214 212 214 222 234 271 266 267 270 269 269 272 279 271 268 263 259 nan nan nan nan nan nan nan nan
287 288 288 287 285 282 283 284 288 289 290 294 296 294 291 290 287 287 287 285 284 281 277 278 278 277 277 278 277 276 276 276 278 278 278 278 276 274 273 272 270 273 275 280 284 289 291 289 290 291 291 287 287 286 279 257 220 219 218 219 212 210 215 220 243 274 269 271 269 267 269 266 280 276 272 269 263 257 251 251 nan nan nan nan nan
289 288 284 282 281 284 285 288 289 288 292 293 293 290 287 287 288 290 288 286 282 279 280 282 283 282 279 280 280 279 279 279 277 274 275 276 276 273 271 271 271 273 278 282 285 285 288 293 296 300 296 290 285 282 278 270 227 220 219 214 211 206 211 223 250 273 273 273 267 264 264 281 284 281 277 271 267 266 259 251 nan nan nan nan nan
283 280 279 281 286 289 290 289 289 291 292 290 288 287 287 288 289 289 286 283 280 280 283 283 286 283 282 283 284 284 283 282 280 278 277 278 276 273 274 276 273 276 284 290 292 295 299 300 304 303 298 291 282 278 271 263 244 229 225 218 211 209 214 241 249 261 267 267 265 262 264 278 278 278 277 275 269 261 258 257 256 nan nan nan nan
271 275 277 279 286 287 284 285 289 290 285 284 285 286 289 289 288 286 283 280 280 282 283 278 278 279 281 283 285 284 286 288 289 282 279 276 274 274 279 279 280 283 288 294 297 298 302 305 304 297 292 287 281 274 270 263 243 233 231 222 212 215 225 241 258 259 264 266 265 266 277 277 279 281 278 276 272 270 265 259 254 253 254 nan nan
267 267 274 280 282 282 284 286 289 288 283 283 285 286 289 288 287 284 281 281 282 284 281 280 279 281 282 280 278 279 288 292 287 281 279 270 272 277 280 282 285 290 291 290 293 298 299 300 294 287 282 280 273 270 271 265 250 240 235 227 218 237 236 247 256 258 261 262 264 269 281 278 279 281 281 279 277 275 271 266 262 260 257 254 nan
272 268 269 278 280 280 284 287 289 287 284 283 281 282 286 287 280 276 278 281 283 285 280 273 273 270 279 275 280 285 285 287 286 285 276 273 272 278 282 287 291 291 289 288 289 292 287 284 276 271 270 268 266 262 258 261 254 249 242 231 235 242 239 255 253 255 257 259 264 274 280 280 280 279 282 282 280 277 273 267 266 266 262 259 258
267 268 269 274 275 279 283 287 288 285 283 281 280 279 282 281 279 279 281 284 282 279 275 269 265 272 273 283 287 287 288 287 288 282 272 275 275 283 291 296 298 298 298 296 293 288 277 269 260 257 260 263 263 265 264 263 259 250 249 245 242 244 242 250 251 252 255 257 260 278 280 280 282 281 282 282 283 280 275 269 266 267 267 264 263
267 269 275 269 271 276 283 287 290 286 285 283 283 282 282 284 285 281 277 274 276 274 264 261 262 268 280 289 293 295 293 290 291 281 274 269 276 291 303 306 310 308 306 297 298 289 282 273 263 254 252 257 266 268 nan nan nan 258 260 255 242 250 251 243 249 252 254 258 260 278 279 279 279 283 283 285 282 280 275 269 268 267 268 267 266
265 267 271 275 270 278 287 293 294 290 292 290 290 286 284 285 277 277 284 286 279 266 258 254 258 272 280 286 293 294 279 272 262 256 259 266 273 286 294 293 288 283 293 284 284 275 267 261 260 252 250 252 255 261 265 264 270 268 267 262 249 248 256 244 247 251 252 253 256 270 277 278 277 281 283 280 279 276 274 271 268 267 264 265 265
266 271 279 274 275 288 299 305 301 297 295 293 291 290 287 290 291 300 300 286 283 274 263 260 270 269 265 266 278 268 262 267 262 262 260 271 292 298 294 294 287 280 277 284 289 283 259 245 246 245 251 nan nan 256 257 263 267 271 269 259 249 241 243 238 243 246 250 253 258 267 272 274 275 275 279 279 277 273 272 269 267 265 263 262 261
271 274 273 272 288 300 307 302 299 294 293 291 288 289 295 299 313 312 300 300 284 286 276 274 274 269 252 259 272 278 280 279 269 267 280 291 297 299 300 295 291 288 282 287 299 295 269 241 228 230 242 252 255 252 253 263 269 271 266 255 249 255 232 221 240 247 247 250 255 265 268 272 271 268 271 277 274 273 272 270 270 268 264 261 259
273 274 285 303 304 308 304 299 297 292 291 290 290 294 296 310 315 309 301 307 294 281 271 272 277 265 255 266 289 295 293 290 287 290 302 299 302 307 304 298 300 294 284 285 293 293 287 262 244 230 227 234 234 nan nan 247 270 261 250 253 263 262 249 224 232 250 252 252 250 257 260 262 268 268 266 269 272 274 273 271 270 270 268 264 262
281 288 296 303 304 298 299 299 293 292 292 292 291 296 304 306 302 292 296 303 279 274 276 272 270 268 275 289 302 302 299 299 301 311 309 309 317 315 310 305 294 287 285 285 292 300 287 267 253 241 235 232 232 nan 222 222 231 244 253 260 259 255 245 223 225 247 248 249 249 254 258 255 268 271 273 273 274 276 276 275 273 273 271 271 270
292 301 307 302 296 293 294 294 293 294 291 286 292 303 306 305 300 294 283 290 277 281 275 273 288 299 302 305 305 306 311 315 326 326 315 317 321 322 311 299 296 284 279 280 293 293 285 267 257 247 241 236 232 224 225 223 nan nan 231 237 235 235 246 238 230 238 238 241 245 249 252 249 251 262 273 276 279 279 279 278 278 278 277 277 276
301 308 303 288 283 287 293 294 292 290 286 288 300 311 305 300 296 291 296 295 293 277 281 292 297 298 304 321 320 329 337 337 334 323 308 305 307 303 289 283 286 291 288 294 291 283 272 267 262 253 240 236 238 233 230 nan nan 246 247 256 266 268 266 238 223 234 244 245 241 239 242 243 244 247 250 274 278 280 281 278 275 278 284 284 281
308 307 290 285 292 300 298 292 288 283 284 300 307 307 301 293 293 291 298 295 281 284 291 286 281 279 290 353 351 333 325 319 319 299 295 299 298 283 273 288 307 309 307 302 282 267 268 269 270 262 251 246 246 241 241 241 nan nan 250 254 251 245 242 236 225 234 243 242 240 241 242 244 247 249 251 254 267 279 280 280 276 272 279 282 280
301 299 289 293 301 298 292 286 284 284 289 300 303 300 287 282 281 285 287 291 292 285 280 280 276 270 277 310 318 311 311 306 289 286 282 273 270 267 254 294 328 327 325 314 300 275 266 255 260 259 251 247 246 246 250 245 nan 245 245 241 242 254 253 249 236 225 251 260 260 257 251 253 254 256 254 253 250 254 269 275 274 274 272 276 273
295 285 289 294 292 286 282 280 283 285 288 293 298 291 277 274 277 284 295 303 303 293 287 281 280 281 297 307 299 295 306 309 285 277 287 284 295 297 248 220 300 303 285 279 274 275 261 256 250 256 248 248 248 252 259 248 242 248 251 253 243 245 247 255 257 241 256 266 271 268 267 267 259 252 250 253 254 254 262 266 273 273 272 273 272
288 287 292 291 290 286 278 276 276 277 284 300 299 285 279 283 287 304 313 311 305 297 301 301 301 300 303 309 301 311 334 327 292 296 296 303 319 330 338 22 308 293 278 264 257 250 251 251 249 257 253 252 259 261 265 252 251 252 248 245 239 233 235 247 246 241 257 268 270 272 269 253 248 251 247 245 251 255 257 265 267 270 267 266 273
293 293 282 283 287 283 273 272 281 280 292 297 290 286 288 290 300 312 303 297 287 295 303 306 304 305 304 301 302 311 328 310 294 297 299 313 316 319 315 327 289 291 283 275 261 261 259 263 244 258 269 263 279 267 251 250 249 255 245 240 230 235 247 243 231 258 266 268 269 265 259 259 250 249 258 253 253 253 257 258 259 258 266 270 266
290 286 282 280 280 274 264 270 277 281 284 287 285 278 281 290 284 287 294 285 284 293 299 295 295 299 296 297 304 311 293 298 300 293 298 302 296 294 292 284 274 289 285 290 277 289 295 288 262 259 282 293 289 267 225 263 257 249 247 244 226 245 276 274 259 278 270 268 271 265 264 266 264 261 263 263 258 256 255 258 256 252 249 252 252
288 282 279 274 267 263 258 262 269 275 277 280 283 276 271 274 268 277 286 282 285 295 300 296 299 304 296 306 310 325 324 327 303 290 290 287 285 285 278 268 253 261 267 287 305 293 290 296 293 284 284 291 292 267 255 293 278 256 249 237 231 236 261 266 252 250 271 270 268 273 277 285 280 274 267 261 260 261 255 257 261 259 258 258 253
282 276 273 260 253 257 257 262 270 274 274 276 274 260 260 264 257 266 275 274 285 302 303 300 308 310 313 323 323 330 306 305 302 291 293 295 290 286 286 282 264 274 268 268 277 285 277 280 299 299 283 291 292 261 281 282 271 263 252 222 236 238 236 238 230 200 253 281 277 271 272 278 274 261 258 259 262 259 255 256 259 259 257 253 250
273 265 267 263 258 260 257 258 266 274 274 275 277 266 267 282 277 261 265 282 298 306 307 307 310 311 318 319 323 319 312 305 294 297 303 304 304 302 299 289 274 269 288 280 278 283 288 288 301 315 308 289 266 273 274 272 268 266 264 248 257 257 244 255 242 236 215 247 251 247 250 258 258 251 247 246 249 250 253 257 261 259 261 257 256
265 265 260 257 262 251 254 259 262 273 281 282 286 287 280 285 279 290 288 292 302 304 302 303 304 309 312 313 311 311 308 307 298 305 313 314 312 305 304 304 300 298 292 302 322 310 330 320 315 319 320 313 296 298 287 287 nan 264 265 268 262 276 262 257 287 287 260 229 252 262 256 255 246 251 247 249 249 248 250 253 260 261 262 261 257
258 259 262 264 276 264 259 269 264 268 281 287 294 294 292 294 290 295 286 290 288 288 290 294 300 300 300 298 296 298 302 305 305 303 306 308 309 306 313 328 326 317 321 317 319 327 333 327 313 312 336 322 306 319 330 nan nan 281 279 264 256 252 265 275 262 255 267 276 269 263 257 267 261 257 247 246 255 254 251 255 256 256 256 260 258
255 261 272 272 280 276 279 282 275 273 280 285 288 286 279 276 270 280 285 279 280 293 295 297 292 286 285 289 296 300 304 306 307 304 303 299 303 311 313 324 336 324 323 336 326 330 337 335 330 322 316 296 288 297 323 288 nan 286 267 265 270 269 250 248 243 235 257 277 256 265 282 277 272 264 250 230 243 248 249 249 252 252 253 255 256
261 264 272 286 292 290 289 287 280 273 274 277 281 282 281 282 274 275 276 280 285 281 279 278 278 282 284 290 295 303 306 307 309 307 307 306 312 315 312 319 336 337 340 341 339 337 334 333 327 308 309 306 301 290 267 271 nan 295 266 274 287 280 275 267 274 265 238 274 301 299 273 273 276 269 262 266 243 243 240 242 249 254 256 254 nan
280 288 289 289 300 299 287 281 273 263 260 272 284 283 282 278 277 278 280 277 268 nan nan 273 277 284 289 292 302 302 314 318 321 321 322 322 324 319 322 325 326 340 332 332 334 334 341 348 328 309 304 305 292 294 279 259 287 281 294 nan nan 269 281 286 285 263 251 245 267 280 282 283 275 263 255 250 243 237 247 247 248 250 252 256 nan
275 284 281 278 281 280 273 268 262 252 254 262 275 274 278 nan 290 288 285 280 nan nan nan 281 283 288 296 299 290 287 280 285 313 328 335 335 342 345 336 328 328 327 323 314 306 303 320 335 334 318 308 307 303 293 282 267 263 256 278 283 287 287 290 298 nan nan nan 260 267 265 265 263 266 262 256 258 253 249 249 260 nan nan nan nan nan
255 263 267 264 264 270 274 275 275 272 269 267 261 267 270 269 272 280 284 282 276 274 nan nan nan nan 284 283 284 nan 280 nan 286 304 329 342 348 343 340 343 333 326 319 304 298 297 305 307 312 312 312 306 298 291 302 292 266 259 250 255 261 267 280 281 nan nan nan nan nan nan nan 267 269 269 nan nan nan nan 255 nan nan nan nan nan nan
262 261 262 262 276 286 290 292 292 298 297 288 278 280 276 268 262 259 259 265 273 273 nan nan nan nan 279 279 279 nan nan 272 280 298 325 327 325 332 337 332 326 317 312 312 308 292 284 284 298 305 304 309 304 300 298 294 290 271 250 249 254 254 257 nan nan nan nan nan nan nan nan nan nan nan nan nan nan nan nan nan nan nan nan nan nan
281 286 278 284 289 292 293 294 300 303 302 305 303 292 282 278 275 274 271 264 271 nan nan nan nan nan nan nan nan nan nan nan nan 306 nan 308 302 290 289 287 300 312 299 300 293 289 279 284 289 288 296 300 296 293 294 300 285 285 267 255 255 255 253 255 263 nan nan nan nan nan nan nan nan nan nan nan nan nan nan nan nan nan nan nan nan
300 304 296 309 316 307 307 307 304 303 307 312 313 309 296 288 285 288 288 287 287 277 nan nan nan nan nan 271 nan nan nan nan nan nan nan nan 282 282 271 269 269 283 284 281 275 275 275 282 277 278 287 288 286 291 292 288 285 285 275 274 266 261 252 248 nan nan nan nan nan nan nan nan nan nan nan nan nan nan nan nan nan nan nan nan nan
287 295 295 306 313 306 310 320 313 302 307 309 311 320 322 320 311 294 283 298 298 288 276 nan nan 264 nan nan nan nan nan nan nan nan nan nan 286 283 nan nan nan 274 274 274 274 281 292 289 290 291 288 285 283 282 279 280 281 280 278 277 276 279 276 nan nan nan nan nan nan nan nan nan nan nan nan nan nan nan nan nan nan nan nan nan nan